< < Back
Terminal Aerodrome Forecast


Current Version              Previous Versions:   1  2  3  4  5  6  7  8  9  

Terminal Aerodrome Forecast

634
FTUS42 KTAE 232300
TAFVLD
TAF
KVLD 232320Z 2400/2424 00000KT P6SM SKC
     FM240800 00000KT 4SM BR FEW007
     FM241100 00000KT 1SM BR SCT003
     FM241400 16004KT P6SM SCT040=



Latest METAR

777
SAUS70 KWBC 241700 RRI
MTRVLD
METAR KVLD 241653Z 16009KT 10SM SCT050 SCT075 31/16 A2999 RMK AO2 SLP162
T03060156


USA.gov is the U.S. government's official web portal to all federal, state and local government web resources and services.